Home > Weather > Vancouver > Past weeks

Flag for Canada Weather for the Past 2 Weeks in Vancouver, British Columbia, Canada

Now
41 °F

Passing clouds.


Feels Like: 36 °F
Forecast: 40 / 46 °F
Wind: 7 mph from East

Location: Vancouver International Airport

Current Time: Feb 6, 2016 at 8:18:55 PM

Latest Report: Feb 6, 2016 at 7:00 PM


Visibility: 20 mi

Pressure: 30.47 "Hg

Humidity: 87%

Dew point: 37 °F

Location of VancouverLocation

Historic Weather in Vancouver — Graph

°F

Vancouver Temperature Yesterday

Maximum temperature yesterday: 50 °F (at 11:00 AM)
Minimum temperature yesterday: 45 °F (at 1:00 AM)
Average temperature yesterday: 47 °F

High & Low Weather Summary for the Past Weeks

 TemperatureHumidityPressure
High54 °F (Jan 27, 10:00 AM)100% (Jan 22, 9:00 PM)30.47 "Hg (Jan 22, 9:00 PM)
Low36 °F (Feb 1, 3:45 AM)62% (Jan 28, 1:00 PM)29.59 "Hg (Jan 29, 10:00 AM)
Average44 °F86%30.05 "Hg
* Reported Jan 22 7:00 PM — Feb 6 7:00 PM, Vancouver, Weather by CustomWeather, © 2016

Note: Actual official high and low records may vary slightly from our data, if they occured in-between our weather recording intervals... More about our weather records

Advertising

Vancouver Weather History for the Previous 24 Hours

 ConditionsComfort  
Time TempWeatherWind HumidityBarometerVisibility
7:00 PM
Sat, Feb 6
41 °FPassing clouds.7 mph87%30.47 "Hg20 mi
6:00 PM43 °FPassing clouds.5 mph81%30.47 "Hg20 mi
5:00 PM45 °FScattered clouds.3 mph76%30.46 "Hg20 mi
4:00 PM46 °FBroken clouds.2 mph76%30.45 "Hg20 mi
3:00 PM46 °FBroken clouds.7 mph76%30.45 "Hg20 mi
2:00 PM48 °FPartly sunny.6 mph62%30.45 "Hg20 mi
1:00 PM48 °FBroken clouds.5 mph66%30.45 "Hg20 mi
12:00 PM46 °FCool.6 mph82%30.45 "Hg20 mi
11:00 AM45 °FPartly sunny.5 mph81%30.45 "Hg20 mi
10:00 AM43 °FBroken clouds.No wind93%30.42 "Hg20 mi
9:00 AM41 °FPartly sunny.3 mph87%30.40 "Hg20 mi
8:00 AM41 °FBroken clouds.5 mph87%30.37 "Hg20 mi
7:00 AM37 °FPassing clouds.6 mph93%30.35 "Hg15 mi
6:00 AM37 °FPassing clouds.3 mph93%30.32 "Hg15 mi
5:00 AM41 °FPassing clouds.5 mph87%30.28 "Hg15 mi
4:00 AM45 °FPassing clouds.10 mph81%30.25 "Hg15 mi
3:00 AM41 °FPartly cloudy.2 mph87%30.23 "Hg15 mi
2:00 AM43 °FPassing clouds.2 mph81%30.19 "Hg15 mi
1:00 AM43 °FPassing clouds.3 mph87%30.17 "Hg15 mi
12:00 AM45 °FPassing clouds.10 mph76%30.14 "Hg15 mi
11:00 PM
Fri, Feb 5
45 °FMostly cloudy.13 mph81%30.08 "Hg15 mi
10:00 PM45 °FOvercast.13 mph81%30.01 "Hg15 mi
9:00 PM46 °FMostly cloudy.17 mph87%29.93 "Hg15 mi
8:00 PM48 °FPartly cloudy.20 mph82%29.91 "Hg15 mi
Weather by CustomWeather, © 2016

See weather overviewHow to use our weather pages